{"data":{"norad_id":45429,"epoch":"2026-05-25T02:36:11.744928Z","epoch_age_seconds":65381,"freshness":"FRESH","line1":"1 45429U 20020F   26145.10846927  .00000390  00000+0  10656-2 0  9994","line2":"2 45429  87.8912  25.6581 0001962  78.9974 281.1375 13.11418663299719","mean_motion":13.11418663,"eccentricity":0.0001962,"inclination_deg":87.8912,"raan_deg":25.6581,"arg_perigee_deg":78.9974,"mean_anomaly_deg":281.1375,"bstar":0.0010656,"rev_number":29971,"period_min":109.80475119256,"perigee_km":1216.185766006,"apogee_km":1219.1663630526,"semimajor_km":7595.8130645293,"source":"CELESTRAK","updated_at":"2026-05-25T13:38:22.341669Z"}}